Dalhart, TX

7:04 AM CST on February 10, 2016 (GMT -0600)
Dalhart Municipal

Weather History for KDHT - November, 2013

Change the Weather History Date:

Monday, November 4, 2013

  Actual Average Record
Temperature  
Mean Temperature 46 °F 49 °F  
Max Temperature 57 °F 65 °F 80 °F (2005)
Min Temperature 35 °F 33 °F 16 °F (1991)
Degree Days  
Heating Degree Days 19 16  
Month to date heating degree days 61 62  
Since 1 July heating degree days 364 422  
Cooling Degree Days 0 0  
Month to date cooling degree days 0 0  
Year to date cooling degree days 1576 1138  
Moisture  
Dew Point 32 °F    
Average Humidity 59    
Maximum Humidity 82    
Minimum Humidity 35    
Precipitation  
Precipitation 0.37 in 0.03 in 1.27 in (1986)
Month to date precipitation 0.37 0.13  
Year to date precipitation 7.15 16.60  
Snow  
Snow 0.00 in 0.00 in 1.00 in (1986)
Month to date snowfall 0.0 0.1  
Since 1 July snowfall T 0.7  
Since 1 September snowfall T 0.7  
Snow Depth 0.00 in    
Sea Level Pressure  
Sea Level Pressure 29.91 in    
Wind  
Wind Speed 12 mph (ENE)    
Max Wind Speed 25 mph    
Max Gust Speed 31 mph    
Visibility 9 miles    
Events Rain , Thunderstorm    
T = Trace of Precipitation, MM = Missing Value Source: NWS Daily Summary

Daily Weather History Graph

Daily Weather History Graph

Search for Another Location

Airport or City:

Trip Planner

Search our weather history database for the weather conditions in past years. The results will help you decide how hot, cold, wet, or windy it might be!

Date:

Astronomy

Nov. 04, 2013 Rise Set
Actual Time 7:15 AM CST 5:51 PM CST
Civil Twilight 6:49 AM CST 6:17 PM CST
Nautical Twilight 6:18 AM CST 6:48 PM CST
Astronomical Twilight 5:48 AM CST 7:18 PM CST
Moon 8:26 AM CST (11/4) 7:00 PM CST (11/4)
Length of Visible Light 11h 28m
Length of Day
10h 35m
New Moon, 2% of the Moon is Illuminated
Nov 4
New Moon
Nov 9
First Quarter
Nov 17
Full
Nov 25
Last Quarter
Dec 2
New

Hourly Weather History & Observations

Time (CST) Temp. Windchill Dew Point Humidity Pressure Visibility Wind Dir Wind Speed Gust Speed Precip Events Conditions
12:53 AM 46.9 °F - 30.0 °F 52% 29.68 in 10.0 mi South 11.5 mph - N/A   Clear
1:53 AM 41.0 °F 35.2 °F 30.9 °F 67% 29.70 in 10.0 mi SW 9.2 mph - N/A   Clear
2:53 AM 37.0 °F 31.6 °F 30.9 °F 79% 29.72 in 10.0 mi SW 6.9 mph - N/A   Clear
3:53 AM 36.0 °F 29.6 °F 30.0 °F 79% 29.74 in 10.0 mi SW 8.1 mph - N/A   Clear
4:53 AM 39.0 °F 34.0 °F 28.9 °F 67% 29.76 in 10.0 mi WNW 6.9 mph - N/A   Clear
5:53 AM 43.0 °F 34.8 °F 28.9 °F 58% 29.81 in 10.0 mi NNE 18.4 mph - N/A   Clear
6:53 AM 39.9 °F 32.1 °F 30.0 °F 68% 29.90 in 10.0 mi NNE 13.8 mph - N/A   Clear
7:53 AM 39.9 °F 31.8 °F 30.9 °F 70% 29.93 in 10.0 mi NNE 15.0 mph - N/A   Clear
8:53 AM 42.1 °F 33.3 °F 32.0 °F 67% 29.99 in 10.0 mi NNE 19.6 mph - N/A   Clear
9:53 AM 46.0 °F 38.3 °F 30.0 °F 54% 30.01 in 10.0 mi NNE 20.7 mph 31.1 mph N/A   Clear
10:53 AM 48.9 °F - 30.0 °F 48% 30.01 in 10.0 mi NNE 20.7 mph - N/A   Clear
11:53 AM 50.0 °F - 27.0 °F 41% 30.01 in 10.0 mi NE 17.3 mph 25.3 mph N/A   Clear
12:53 PM 52.0 °F - 28.0 °F 40% 29.98 in 10.0 mi ENE 10.4 mph 20.7 mph N/A   Clear
1:53 PM 54.0 °F - 27.0 °F 35% 29.96 in 10.0 mi ENE 11.5 mph 19.6 mph N/A   Clear
2:53 PM 55.9 °F - 30.0 °F 37% 29.94 in 10.0 mi ENE 12.7 mph - N/A   Clear
3:53 PM 57.0 °F - 32.0 °F 39% 29.93 in 10.0 mi East 11.5 mph - N/A   Clear
4:53 PM 55.9 °F - 32.0 °F 40% 29.93 in 10.0 mi ESE 11.5 mph - N/A   Clear
5:53 PM 51.1 °F - 33.1 °F 50% 29.94 in 10.0 mi East 6.9 mph - N/A   Clear
6:53 PM 46.0 °F 42.5 °F 30.9 °F 56% 29.97 in 10.0 mi East 6.9 mph - N/A   Clear
7:53 PM 44.1 °F 40.1 °F 32.0 °F 63% 29.99 in 10.0 mi East 6.9 mph - N/A   Clear
8:53 PM 48.0 °F - 33.1 °F 56% 29.96 in 10.0 mi East 5.8 mph - N/A   Overcast
9:53 PM 48.0 °F - 33.1 °F 56% 29.94 in 10.0 mi East 8.1 mph - N/A   Overcast
10:53 PM 48.0 °F - 34.0 °F 58% 29.90 in 10.0 mi NE 8.1 mph - 0.00 in   Overcast
11:07 PM 48.2 °F - 33.8 °F 58% 29.98 in 1.8 mi Calm Calm - 0.12 in Rain , Thunderstorm Heavy Rain
11:23 PM 46.4 °F 42.9 °F 37.4 °F 71% 29.96 in 2.0 mi NE 6.9 mph - 0.25 in Rain , Thunderstorm Heavy Thunderstorms and Rain
11:37 PM 44.6 °F 43.1 °F 39.2 °F 81% 29.97 in 7.0 mi ENE 3.5 mph - 0.26 in Rain , Thunderstorm Light Thunderstorms and Rain
11:53 PM 45.0 °F 38.5 °F 39.9 °F 82% 29.94 in 2.5 mi WNW 13.8 mph 18.4 mph 0.32 in Rain , Thunderstorm Heavy Thunderstorms and Rain